Meteo pe oră la Czyzewo

Astăzi, 15 Aprilie, Joi

Timp Temperatura Precipitaţii Vânt Presiune Umiditate
00:00 +1°C° 0 mm 3 m/s 761 mmHg 78%
01:00 +1°C° 0 mm 3 m/s 761 mmHg 79%
02:00 +1°C° 0 mm 3 m/s 761 mmHg 80%
03:00 +1°C° 0 mm 3 m/s 761 mmHg 80%
04:00 +1°C° 0 mm 3 m/s 761 mmHg 81%
05:00 0°C° 0 mm 4 m/s 761 mmHg 78%
06:00 +1°C° 0 mm 4 m/s 761 mmHg 74%
07:00 +1°C° 0 mm 4 m/s 761 mmHg 71%
08:00 +2°C° 0 mm 5 m/s 761 mmHg 64%
09:00 +2°C° 0 mm 5 m/s 761 mmHg 57%
10:00 +3°C° 0 mm 6 m/s 761 mmHg 50%
11:00 +4°C° 0 mm 6 m/s 761 mmHg 50%
12:00 +4°C° 0 mm 7 m/s 761 mmHg 51%
13:00 +4°C° 0 mm 7 m/s 760 mmHg 51%
14:00 +4°C° 0.1 mm 7 m/s 760 mmHg 58%
15:00 +3°C° 0.1 mm 6 m/s 760 mmHg 65%
16:00 +3°C° 0.1 mm 6 m/s 760 mmHg 73%
17:00 +2°C° 0.3 mm 6 m/s 760 mmHg 77%
18:00 +2°C° 0.3 mm 6 m/s 759 mmHg 82%
19:00 +1°C° 0.3 mm 5 m/s 759 mmHg 87%
20:00 +1°C° 0.4 mm 5 m/s 759 mmHg 89%
21:00 +1°C° 0.4 mm 5 m/s 759 mmHg 90%
22:00 +1°C° 0.4 mm 5 m/s 759 mmHg 91%
23:00 +1°C° 0 mm 5 m/s 759 mmHg 89%

Mâine, 16 Aprilie, Vineri

Timp Temperatura Precipitaţii Vânt Presiune Umiditate
00:00 +1°C° 0 mm 4 m/s 759 mmHg 87%
01:00 +1°C° 0 mm 4 m/s 759 mmHg 84%
02:00 +1°C° 0 mm 4 m/s 759 mmHg 85%
03:00 +1°C° 0 mm 4 m/s 759 mmHg 86%
04:00 0°C° 0 mm 4 m/s 758 mmHg 87%
05:00 +1°C° 0 mm 4 m/s 759 mmHg 86%
06:00 +1°C° 0 mm 4 m/s 759 mmHg 86%
07:00 +1°C° 0 mm 4 m/s 759 mmHg 85%
08:00 +4°C° 0 mm 4 m/s 759 mmHg 77%
09:00 +5°C° 0 mm 4 m/s 759 mmHg 69%
10:00 +6°C° 0 mm 5 m/s 759 mmHg 61%
11:00 +7°C° 0 mm 5 m/s 759 mmHg 57%
12:00 +8°C° 0 mm 5 m/s 758 mmHg 53%
13:00 +9°C° 0 mm 5 m/s 758 mmHg 49%
14:00 +8°C° 0 mm 5 m/s 758 mmHg 56%
15:00 +7°C° 0 mm 5 m/s 758 mmHg 63%
16:00 +6°C° 0 mm 5 m/s 758 mmHg 70%
17:00 +5°C° 0.1 mm 5 m/s 758 mmHg 75%
18:00 +4°C° 0.1 mm 4 m/s 758 mmHg 80%
19:00 +3°C° 0.1 mm 4 m/s 759 mmHg 85%
20:00 +3°C° 0.2 mm 3 m/s 758 mmHg 87%
21:00 +3°C° 0.2 mm 3 m/s 758 mmHg 89%
22:00 +3°C° 0.2 mm 3 m/s 758 mmHg 91%
23:00 +3°C° 0.2 mm 3 m/s 758 mmHg 92%

Poimâine, 17 Aprilie, Sâmbătă

Timp Temperatura Precipitaţii Vânt Presiune Umiditate
00:00 +4°C° 0.2 mm 2 m/s 758 mmHg 93%
01:00 +4°C° 0.2 mm 2 m/s 758 mmHg 95%
02:00 +4°C° 0 mm 2 m/s 758 mmHg 95%
03:00 +4°C° 0 mm 2 m/s 758 mmHg 95%
04:00 +5°C° 0 mm 1 m/s 758 mmHg 95%
05:00 +5°C° 0 mm 1 m/s 758 mmHg 94%
06:00 +6°C° 0 mm 1 m/s 758 mmHg 93%
07:00 +6°C° 0 mm 1 m/s 758 mmHg 92%
08:00 +5°C° 0 mm 2 m/s 758 mmHg 91%
09:00 +6°C° 0 mm 2 m/s 758 mmHg 90%
10:00 +6°C° 0 mm 2 m/s 758 mmHg 89%
11:00 +7°C° 0.3 mm 2 m/s 758 mmHg 89%
12:00 +7°C° 0.3 mm 2 m/s 758 mmHg 90%
13:00 +7°C° 0.3 mm 3 m/s 758 mmHg 91%
14:00 +7°C° 0.2 mm 2 m/s 758 mmHg 92%
15:00 +7°C° 0.2 mm 2 m/s 758 mmHg 93%
16:00 +7°C° 0.2 mm 2 m/s 757 mmHg 94%
17:00 +7°C° 0 mm 2 m/s 758 mmHg 95%
18:00 +7°C° 0 mm 2 m/s 758 mmHg 96%
19:00 +7°C° 0 mm 2 m/s 758 mmHg 96%
20:00 +7°C° 0 mm 2 m/s 758 mmHg 96%
21:00 +7°C° 0 mm 2 m/s 758 mmHg 96%
22:00 +6°C° 0 mm 2 m/s 758 mmHg 96%
23:00 +6°C° 0 mm 2 m/s 758 mmHg 96%

18 Aprilie, Duminică

Timp Temperatura Precipitaţii Vânt Presiune Umiditate
00:00 +6°C° 0 mm 2 m/s 757 mmHg 96%
01:00 +6°C° 0 mm 2 m/s 757 mmHg 96%
02:00 +6°C° 0 mm 2 m/s 757 mmHg 96%
03:00 +5°C° 0 mm 2 m/s 757 mmHg 96%
04:00 +5°C° 0 mm 2 m/s 757 mmHg 96%
05:00 +5°C° 0.1 mm 2 m/s 757 mmHg 95%
06:00 +6°C° 0.1 mm 2 m/s 757 mmHg 93%
07:00 +7°C° 0.1 mm 2 m/s 757 mmHg 92%
08:00 +7°C° 0.2 mm 2 m/s 757 mmHg 90%
09:00 +8°C° 0.2 mm 2 m/s 757 mmHg 88%
10:00 +9°C° 0.2 mm 1 m/s 757 mmHg 85%
11:00 +10°C° 0.2 mm 1 m/s 757 mmHg 80%
12:00 +11°C° 0.2 mm 1 m/s 757 mmHg 74%
13:00 +12°C° 0.2 mm 2 m/s 756 mmHg 69%
14:00 +12°C° 0.4 mm 1 m/s 756 mmHg 69%
15:00 +12°C° 0.4 mm 1 m/s 756 mmHg 69%
16:00 +12°C° 0.4 mm 1 m/s 756 mmHg 69%
17:00 +11°C° 0.2 mm 1 m/s 756 mmHg 72%
18:00 +10°C° 0.2 mm 1 m/s 756 mmHg 76%
19:00 +10°C° 0.2 mm 1 m/s 756 mmHg 80%
20:00 +9°C° 0 mm 1 m/s 756 mmHg 82%
21:00 +9°C° 0 mm 1 m/s 756 mmHg 83%
22:00 +8°C° 0 mm 1 m/s 757 mmHg 85%
23:00 +8°C° 0 mm 1 m/s 756 mmHg 86%

19 Aprilie, Luni

Timp Temperatura Precipitaţii Vânt Presiune Umiditate
00:00 +6°C° 0 mm 2 m/s 756 mmHg 88%
01:00 +6°C° 0 mm 2 m/s 756 mmHg 89%
02:00 +6°C° 0 mm 2 m/s 756 mmHg 90%
03:00 +6°C° 0 mm 1 m/s 756 mmHg 90%
04:00 +6°C° 0 mm 1 m/s 756 mmHg 90%
05:00 +6°C° 0 mm 2 m/s 756 mmHg 88%
06:00 +7°C° 0 mm 2 m/s 756 mmHg 85%
07:00 +8°C° 0 mm 2 m/s 756 mmHg 83%
08:00 +9°C° 0.1 mm 2 m/s 756 mmHg 78%
09:00 +10°C° 0.1 mm 2 m/s 756 mmHg 72%
10:00 +12°C° 0.1 mm 3 m/s 756 mmHg 67%
11:00 +12°C° 0.3 mm 3 m/s 755 mmHg 62%
12:00 +13°C° 0.3 mm 3 m/s 755 mmHg 58%
13:00 +14°C° 0.3 mm 3 m/s 755 mmHg 53%
14:00 +13°C° 0.2 mm 3 m/s 754 mmHg 54%
15:00 +13°C° 0.2 mm 3 m/s 754 mmHg 55%
16:00 +13°C° 0.2 mm 3 m/s 754 mmHg 56%
17:00 +12°C° 0.1 mm 3 m/s 754 mmHg 64%
18:00 +11°C° 0.1 mm 3 m/s 754 mmHg 71%
19:00 +10°C° 0.1 mm 2 m/s 753 mmHg 78%
20:00 +9°C° 0 mm 2 m/s 753 mmHg 80%
21:00 +9°C° 0 mm 2 m/s 753 mmHg 83%
22:00 +9°C° 0 mm 2 m/s 753 mmHg 86%
23:00 +9°C° 0 mm 2 m/s 753 mmHg 86%

20 Aprilie, Marţi

Timp Temperatura Precipitaţii Vânt Presiune Umiditate
00:00 +8°C° 0 mm 2 m/s 752 mmHg 86%
01:00 +8°C° 0 mm 2 m/s 752 mmHg 86%
02:00 +8°C° 0 mm 2 m/s 752 mmHg 86%
03:00 +8°C° 0 mm 2 m/s 752 mmHg 86%
04:00 +7°C° 0 mm 3 m/s 751 mmHg 86%
05:00 +8°C° 0 mm 3 m/s 751 mmHg 84%
06:00 +8°C° 0 mm 3 m/s 751 mmHg 82%
07:00 +8°C° 0 mm 3 m/s 751 mmHg 80%
08:00 +8°C° 0 mm 4 m/s 751 mmHg 77%
09:00 +10°C° 0 mm 4 m/s 750 mmHg 74%
10:00 +11°C° 0 mm 4 m/s 750 mmHg 71%
11:00 +12°C° 0.1 mm 4 m/s 750 mmHg 68%
12:00 +12°C° 0.1 mm 4 m/s 749 mmHg 66%
13:00 +13°C° 0.1 mm 4 m/s 749 mmHg 63%
14:00 +13°C° 0.4 mm 5 m/s 749 mmHg 66%
15:00 +13°C° 0.4 mm 5 m/s 749 mmHg 68%
16:00 +13°C° 0.4 mm 5 m/s 749 mmHg 71%
17:00 +11°C° 0.2 mm 4 m/s 749 mmHg 76%
18:00 +10°C° 0.2 mm 4 m/s 749 mmHg 81%
19:00 +8°C° 0.2 mm 4 m/s 749 mmHg 86%
20:00 +8°C° 0 mm 3 m/s 749 mmHg 89%
21:00 +7°C° 0 mm 3 m/s 749 mmHg 92%
22:00 +5°C° 0 mm 3 m/s 749 mmHg 95%
23:00 +6°C° 0 mm 2 m/s 748 mmHg 96%
Arată mai mult

Formular de consimțământ

Meteoprog și furnizorii noștri de servicii pot stoca și accesa date personale, precum cookies, identificatori de dispozitiv sau alte tehnologii similare pe dispozitivul dumneavoastră și procesa astfel de date pentru a personaliza conținutul și reclamele, dar și pentru a oferi caracteristici de social media și pentru a analiza traficul.

  • Stocarea și/sau accesarea informațiilor pe dispozitivul dumneavoastră

    Cookies, identificatori de dispozitiv sau alte informații pot fi stocate sau accesate pe dispozitiv în scopurile indicate mai sus.

  • Reclame și conținut personalizat, evaluarea reclamelor și a conținutului, informații despre audiențe și dezvoltarea produselor

    Reclamele și conținutul pot fi personalizate pe baza unui profil. Pot fi adăugate date suplimentare pentru a personaliza mai bine reclamele și conținutul. Performanța reclamelor și conținutului poate fi măsurată. Pot fi obținute informații despre utilizatorii care au văzut reclamele și conținutul. Aceste date pot fi utilizate pentru a dezvolta sau îmbunătăți experiența utilizatorilor, sistemele și software-ul.

Dând clic pe ‘Sunt de acord’, permiteți utilizarea cookie-urilor menționate, a identificatorilor de dispozitiv, balizelor web sau altor tehnologii similare. Setările pot fi modificate din browser-ul dispozitivului dumneavoastră.

În anumite scopuri, interesele legitime pot prima asupra consimțământului. Puteți citi mai multe informații în acest sens în Politica privind Confidențialitatea Datelor și Cookie.